EAST HATTERAS NM East of Cape Hatteras (41001)

Conditions for Tuesday

Daily
Weekly
Monthly
Marine Data Graph

Current Weather/Wave Observations

Air Temperature: 75° F
Humidity: 83
Wind direction (W Dir): South (185 - 194 Degrees)
Wind Speed (W Spd): 17.5 kts (20.1 mph)
Wind Gust (W Spd): 23.3 kts (26.8 mph)
Atmospheric Pressure (AP): 29.85 in

Updated: 6:30 PM EDT on May 23, 2017

Marine & Boating Location Search

Enter a coastal zip code for marine weather.

General Information

Location: 34.645 North -72.695 West
Buoy Type: 2.3-meter foam discus buoy
Buoy Hull: 3DV46
Payload: SCOOP payload
Owned by: NDBC
Windspeed: Measured by obtained from anemometer
Sea Surface: Measured by Intake
Note: Station 41001 went adrift on 04/05/2016 and the last report from its moored position was at 0400Z. All payloads stopped reporting after 2040Z 04/09/2016. The M/V Bluefin confirmed no buoy on station.

Weather and Wave Data

Time Temp Humidity Wind Dominant Wave Wind Wave Wave Swell Pressure
  Air
(°F)
Water
(°F)
  Dir Speed
(kts)
Speed
(mph)
Period
(sec)
Height
(ft)
Range
(ft)
Period
(sec)
Height
(ft)
Range
(ft)
Period
(sec)
Height
(ft)
Range
(ft)
Atmo.
(in)
Tend.
(in)
20:00 73 73 87 SSE 13.6 15.7 - - - - - - 30.04 +0.01
20:10 73 73 88 SSE 13.6 15.7 - - - - - - 30.05 -
20:20 73 73 88 SSE 13.6 15.7 - - - - - - 30.05 -
20:30 73 73 87 SSE 13.6 15.7 - - - - - - 30.05 -
20:40 73 73 87 SSE 13.6 15.7 - - - - - - 30.05 -
20:50 73 73 89 SSE 13.6 15.7 6 3.94 exactly 3.9 6 3.28 2.46 - 4.10 8 1.64 0.82 - 2.46 30.04 -
21:10 73 73 89 SSE 13.6 15.7 - - - - - - 30.05 -
21:20 73 73 89 SSE 13.6 15.7 - - - - - - 30.05 -
21:30 73 73 89 South 13.6 15.7 - - - - - - 30.06 -
21:40 73 73 89 SSE 13.6 15.7 - - - - - - 30.06 -
21:50 73 73 89 SSE 11.7 13.4 7 3.94 exactly 3.9 5 3.28 2.46 - 4.10 7 1.64 0.82 - 2.46 30.06 -
22:00 73 73 89 SSE 13.6 15.7 - - - - - - 30.07 +0.03
22:10 73 73 89 South 13.6 15.7 - - - - - - 30.07 -
22:20 73 73 90 South 11.7 13.4 - - - - - - 30.07 -
22:30 73 73 91 South 11.7 13.4 - - - - - - 30.07 -
22:40 73 73 91 South 13.6 15.7 - - - - - - 30.07 -
22:50 73 73 92 South 13.6 15.7 7 3.94 exactly 3.9 7 3.28 2.46 - 4.10 8 1.64 0.82 - 2.46 30.07 -
23:00 73 73 92 South 11.7 13.4 - - - - - - 30.07 +0.03
23:10 73 73 93 South 11.7 13.4 - - - - - - 30.06 -
23:20 73 73 93 South 11.7 13.4 - - - - - - 30.06 -
23:30 73 73 92 South 11.7 13.4 - - - - - - 30.06 -
23:40 73 73 92 South 11.7 13.4 - - - - - - 30.06 -
23:50 73 73 93 South 11.7 13.4 7 3.61 exactly 3.6 6 3.28 2.46 - 4.10 7 1.64 0.82 - 2.46 30.06 -
00:00 73 73 94 South 11.7 13.4 - - - - - - 30.05 -
00:10 73 73 95 South 11.7 13.4 - - - - - - 30.05 -
00:20 73 73 95 South 11.7 13.4 - - - - - - 30.04 -
00:30 73 73 96 South 11.7 13.4 - - - - - - 30.04 -
00:40 73 73 96 South 11.7 13.4 - - - - - - 30.04 -
00:50 73 73 96 South 11.7 13.4 7 3.61 exactly 3.6 6 3.28 2.46 - 4.10 7 1.64 0.82 - 2.46 30.03 -
01:10 73
-
98 South 11.7 13.4 - - - - - - 30.02 -
01:20 73 73 98 SSW 11.7 13.4 - - - - - - 30.02 -
01:30 73 73 98 SSW 11.7 13.4 - - - - - - 30.01 -
01:40 74 73 93 SSW 11.7 13.4 - - - - - - 30.01 -
01:50 74 73 92 SSW 11.7 13.4 6 3.61 exactly 3.6 4 1.64 0.82 - 2.46 6 3.28 2.46 - 4.10 30.01 -
02:10 74 73 90 SSW 11.7 13.4 - - - - - - 30.01 -
02:20 74 73 88 SSW 11.7 13.4 - - - - - - 30.00 -
02:40 74 73 88 SSW 11.7 13.4 - - - - - - 29.99 -
02:50 74 73 86 SSW 13.6 15.7 7 3.28 exactly 3.3 4 3.28 2.46 - 4.10 7 1.64 0.82 - 2.46 29.99 -
03:10 74
-
88 SSW 11.7 13.4 - - - - - - 29.99 -
03:20 74 73 86 SW 13.6 15.7 - - - - - - 29.99 -
03:30 74 73 81 SW 13.6 15.7 - - - - - - 29.98 -
03:40 74 73 79 SW 13.6 15.7 - - - - - - 29.98 -
03:50 74 73 81 SW 13.6 15.7 6 3.61 exactly 3.6 6 3.28 2.46 - 4.10 7 1.64 0.82 - 2.46 29.98 -
04:10 74 73 82 SW 13.6 15.7 - - - - - - 29.98 -
04:20 74 73 83 SW 11.7 13.4 - - - - - - 29.98 -
04:30 74 73 83 SW 13.6 15.7 - - - - - - 29.95 -
04:40 74 73 83 SW 11.7 13.4 - - - - - - 29.96 -
04:50 74 73 81 SW 11.7 13.4 7 3.61 exactly 3.6 5 3.28 2.46 - 4.10 7 1.64 0.82 - 2.46 29.96 -
05:10 74 73 79 SSW 11.7 13.4 - - - - - - 29.96 -
05:40 74 73 78 SW 13.6 15.7 - - - - - - 29.96 -
05:50 74 73 78 SW 13.6 15.7 5 4.27 exactly 4.3 5 4.92 4.10 - 5.74 8 1.64 0.82 - 2.46 29.96 -
06:10 74 73 78 SW 13.6 15.7 - - - - - - 29.96 -
06:20 74 73 77 SSW 13.6 15.7 - - - - - - 29.96 -
06:30 74 73 78 SSW 13.6 15.7 - - - - - - 29.97 -
06:40 74 73 78 SSW 13.6 15.7 - - - - - - 29.97 -
06:50 74 73 78 SSW 15.6 17.9 5 4.27 exactly 4.3 5 3.28 2.46 - 4.10 8 1.64 0.82 - 2.46 29.98 -
07:00 74 73 78 SSW 13.6 15.7 - - - - - - 29.98 -
07:10 74 73 79 SSW 15.6 17.9 - - - - - - 29.98 -
07:20 74 73 79 SSW 13.6 15.7 - - - - - - 29.98 -
07:30 74 73 79 SSW 13.6 15.7 - - - - - - 29.98 -
07:40 74 73 79 SW 13.6 15.7 - - - - - - 29.98 -
07:50 74 73 79 SW 13.6 15.7 6 4.27 exactly 4.3 6 3.28 2.46 - 4.10 7 1.64 0.82 - 2.46 29.98 -
08:20 74 73 79 SSW 13.6 15.7 - - - - - - 29.98 -
08:30 74 73 81 SSW 13.6 15.7 - - - - - - 29.98 -
08:40 74 73 79 SSW 13.6 15.7 - - - - - - 29.98 -
08:50 74 73 81 SSW 11.7 13.4 6 3.94 exactly 3.9 6 3.28 2.46 - 4.10 8 1.64 0.82 - 2.46 29.98 -
09:10 74 73 80 SSW 13.6 15.7 - - - - - - 29.98 -
09:20 74 73 80 SSW 13.6 15.7 - - - - - - 29.98 -
09:30 74 73 79 SSW 13.6 15.7 - - - - - - 29.98 -
09:40 74 73 79 SSW 13.6 15.7 - - - - - - 29.98 -
09:50 74 73 79 SSW 13.6 15.7 6 4.59 exactly 4.6 6 4.92 4.10 - 5.74 8 1.64 0.82 - 2.46 29.98 -
10:10 74 73 78 SSW 13.6 15.7 - - - - - - 29.98 -
10:20 74 73 77 SSW 13.6 15.7 - - - - - - 29.98 -
10:30 74 73 76 SSW 15.6 17.9 - - - - - - 29.98 -
10:40 74 73 76 SSW 15.6 17.9 - - - - - - 29.98 -
10:50 74 73 77 SSW 13.6 15.7 6 4.59 exactly 4.6 6 4.92 4.10 - 5.74 13 1.64 0.82 - 2.46 29.98 -
11:00 74 73 76 SSW 15.6 17.9 - - - - - - 29.98 -
11:10 74 73 76 SSW 13.6 15.7 - - - - - - 29.98 -
11:20 74 73 76 SSW 13.6 15.7 - - - - - - 29.97 -
11:30 74 73 76 SSW 13.6 15.7 - - - - - - 29.97 -
11:40 74 74 76 SSW 13.6 15.7 - - - - - - 29.96 -
11:50 74 74 77 SSW 13.6 15.7 6 4.92 exactly 4.9 6 4.92 4.10 - 5.74 12 1.64 0.82 - 2.46 29.96 -
12:10 74 74 76 SSW 13.6 15.7 - - - - - - 29.96 -
12:20 75 74 73 SSW 13.6 15.7 - - - - - - 29.96 -
12:30 75 74 72 SSW 15.6 17.9 - - - - - - 29.96 -
12:40 75 74 75 SSW 15.6 17.9 - - - - - - 29.96 -
12:50 74 74 78 SSW 15.6 17.9 6 4.92 exactly 4.9 6 4.92 4.10 - 5.74 12 1.64 0.82 - 2.46 29.95 -
13:10 75 74 74 SSW 15.6 17.9 - - - - - - 29.94 -
13:20 75 74 75 SSW 15.6 17.9 - - - - - - 29.94 -
13:30 75 74 76 SSW 15.6 17.9 - - - - - - 29.93 -
13:40 75 74 77 SSW 15.6 17.9 - - - - - - 29.93 -
13:50 75 74 78 SSW 15.6 17.9 6 4.92 exactly 4.9 6 4.92 4.10 - 5.74 8 1.64 0.82 - 2.46 29.93 -
14:10 75 74 79 SSW 15.6 17.9 - - - - - - 29.92 -
14:20 75 74 79 SSW 15.6 17.9 - - - - - - 29.91 -
14:30 75 74 78 SSW 15.6 17.9 - - - - - - 29.91 -
14:40 75 74 77 SSW 15.6 17.9 - - - - - - 29.91 -
14:50 75 74 77 SSW 15.6 17.9 6 5.25 exactly 5.2 6 4.92 4.10 - 5.74 12 1.64 0.82 - 2.46 29.90 -
15:00 75
-
77 SSW 15.6 17.9 - - - - - - 29.90 -0.06
15:10 75 74 79 SSW 15.6 17.9 - - - - - - 29.90 -
15:20 75 74 79 SSW 15.6 17.9 - - - - - - 29.90 -
15:30 75 74 79 SSW 15.6 17.9 - - - - - - 29.89 -
15:40 75 74 79 SSW 15.6 17.9 - - - - - - 29.89 -
15:50 75 74 80 SSW 15.6 17.9 6 5.25 exactly 5.2 6 4.92 4.10 - 5.74 11 1.64 0.82 - 2.46 29.89 -
16:10 75 74 80 SSW 17.5 20.1 - - - - - - 29.88 -
16:20 75 74 81 SSW 15.6 17.9 - - - - - - 29.88 -
16:30 75 74 81 SSW 15.6 17.9 - - - - - - 29.87 -
16:40 75 74 81 SSW 17.5 20.1 - - - - - - 29.87 -
16:50 75 74 81 SSW 17.5 20.1 6 5.58 exactly 5.6 6 4.92 4.10 - 5.74 12 1.64 0.82 - 2.46 29.87 -
17:00 75
-
81 SSW 17.5 20.1 - - - - - - 29.86 -0.06
17:10 75 74 81 SSW 17.5 20.1 - - - - - - 29.86 -
17:20 75 74 81 South 17.5 20.1 - - - - - - 29.86 -
17:30 75 74 83 South 17.5 20.1 - - - - - - 29.86 -
17:40 75 74 83 SSW 17.5 20.1 - - - - - - 29.85 -
17:50 75 74 83 SSW 17.5 20.1 6 6.23 exactly 6.2 6 6.56 5.74 - 7.38 11 1.64 0.82 - 2.46 29.85 -
18:00 75 74 83 South 17.5 20.1 - - - - - - 29.84 -0.06
18:10 75 74 82 South 17.5 20.1 - - - - - - 29.84 -
18:20 75 74 82 South 17.5 20.1 - - - - - - 29.85 -
18:30 75 74 83 South 17.5 20.1 - - - - - - 29.85 -

Detailed Wave Spectra

Time Water Depth Wave Height Spectral Peak Period Average Wave Period Sampling Interval Wave Record
21:00 14610 ft 4.00 ft 6.3 sec 4.7 sec 0.6 sec 2400 sec
01:00 14610 ft 3.61 ft 6.7 sec 4.9 sec 0.6 sec 2400 sec
02:00 14610 ft 3.58 ft 5.6 sec 4.8 sec 0.6 sec 2400 sec
03:00 14610 ft 3.38 ft 6.7 sec 4.7 sec 0.6 sec 2400 sec
04:00 14610 ft 3.54 ft 6.3 sec 4.7 sec 0.6 sec 2400 sec
05:00 14610 ft 3.74 ft 6.7 sec 4.6 sec 0.6 sec 2400 sec
06:00 14610 ft 4.33 ft 4.8 sec 4.7 sec 0.6 sec 2400 sec
08:00 14610 ft 4.20 ft 5.6 sec 4.8 sec 0.6 sec 2400 sec
09:00 14610 ft 4.00 ft 5.9 sec 4.8 sec 0.6 sec 2400 sec
10:00 14610 ft 4.66 ft 5.6 sec 5.0 sec 0.6 sec 2400 sec
12:00 14610 ft 4.89 ft 5.6 sec 5.0 sec 0.6 sec 2400 sec
13:00 14610 ft 4.86 ft 5.9 sec 5.1 sec 0.6 sec 2400 sec
14:00 14610 ft 4.92 ft 6.3 sec 5.1 sec 0.6 sec 2400 sec
16:00 14610 ft 5.22 ft 5.9 sec 5.3 sec 0.6 sec 2400 sec